Simultaneous Nadir Overpasses (SNOs) Predictions

Prediction of SNOs between NOAA-19 and NPP Satellite Orbit:

Table of predicted SNOs for the next 14.0 days since TLE Epoch: 7/21/2012
Index Date (NOAA-19) Time (NOAA-19) NOAA-19 Lat,Lon Date (NPP) Time (NPP) NPP Lat,Lon Distance(km) Time Diff (sec)
1 07/27/2012 23:03:11 -80.67, -33.38 07/27/2012 23:04:14 -80.68, -33.54 2.94 63
2 07/27/2012 23:54:14 80.68, 133.75 07/27/2012 23:54:59 80.67, 133.83 1.46 45
3 07/28/2012 00:45:13 -80.61, -57.82 07/28/2012 00:45:41 -80.61, -57.93 2.03 28
4 07/28/2012 01:36:17 80.64, 108.97 07/28/2012 01:36:27 80.63, 109.10 2.35 10
5 07/28/2012 02:27:15 -80.55, -82.28 07/28/2012 02:27:08 -80.55, -82.34 1.11 7
6 07/28/2012 03:18:13 80.44, 86.53 07/28/2012 03:17:49 80.45, 86.36 3.20 24
7 07/28/2012 04:09:16
